N829QS LPPT-LPFR

Flight info

Callsign N829QS
Flight time 0h 30m
Altitude 23000
Route DUZOP1X DUZOP DCT ODEMI ODEMI6K
Aircraft C700/M-SBDGHM1RWXY/LB2

Departure

Time 2026-05-03 20:43
Airport Lisbon Humberto Delgado Airport (LPPT)

Arrival

Time 2026-05-03 21:14
Airport Faro - Gago Coutinho International Airport (LPFR)
Time Latitude Longitude Altitude Speed Heading
2026-05-03 20:27 38.77888 -9.13192 335 ft 0 kts 16°
2026-05-03 20:32 38.77886 -9.13193 335 ft 2 kts 16°
2026-05-03 20:32 38.77864 -9.13205 333 ft 4 kts 46°
2026-05-03 20:32 38.77856 -9.13226 333 ft 4 kts 128°
2026-05-03 20:32 38.77864 -9.13235 335 ft 0 kts 167°
2026-05-03 20:36 38.77834 -9.13226 334 ft 11 kts 167°
2026-05-03 20:36 38.77749 -9.13226 330 ft 11 kts 236°
2026-05-03 20:36 38.77734 -9.13315 331 ft 8 kts 256°
2026-05-03 20:36 38.77705 -9.13361 334 ft 7 kts 206°
2026-05-03 20:37 38.77652 -9.13390 337 ft 10 kts 202°
2026-05-03 20:37 38.77587 -9.13424 338 ft 10 kts 202°
2026-05-03 20:37 38.77535 -9.13439 338 ft 6 kts 178°
2026-05-03 20:37 38.77516 -9.13459 339 ft 4 kts 229°
2026-05-03 20:38 38.77509 -9.13469 335 ft 0 kts 225°
2026-05-03 20:38 38.77508 -9.13470 336 ft 1 kts 225°
2026-05-03 20:39 38.77490 -9.13492 340 ft 8 kts 223°
2026-05-03 20:39 38.77428 -9.13536 345 ft 12 kts 179°
2026-05-03 20:39 38.77331 -9.13512 341 ft 15 kts 170°
2026-05-03 20:39 38.77279 -9.13604 344 ft 15 kts 258°
2026-05-03 20:40 38.77257 -9.13739 349 ft 17 kts 258°
2026-05-03 20:40 38.77202 -9.13863 356 ft 17 kts 202°
2026-05-03 20:40 38.77075 -9.13929 346 ft 22 kts 202°
2026-05-03 20:40 38.76925 -9.14010 338 ft 23 kts 203°
2026-05-03 20:41 38.76767 -9.14094 335 ft 27 kts 202°
2026-05-03 20:41 38.76642 -9.14160 336 ft 14 kts 202°
2026-05-03 20:41 38.76592 -9.14200 335 ft 6 kts 243°
2026-05-03 20:41 38.76597 -9.14249 333 ft 4 kts 293°
2026-05-03 20:42 38.76618 -9.14313 329 ft 12 kts 293°
2026-05-03 20:42 38.76669 -9.14368 330 ft 9 kts 357°
2026-05-03 20:42 38.76720 -9.14348 332 ft 7 kts 23°
2026-05-03 20:42 38.76726 -9.14344 332 ft 0 kts 23°
2026-05-03 20:43 38.76797 -9.14306 334 ft 52 kts 22°
2026-05-03 20:43 38.77471 -9.13941 420 ft 149 kts 21°
2026-05-03 20:43 38.78490 -9.13376 1366 ft 169 kts 21°
2026-05-03 20:43 38.79521 -9.12681 2666 ft 175 kts 27°
2026-05-03 20:44 38.80628 -9.11791 3624 ft 200 kts 27°
2026-05-03 20:44 38.81864 -9.10900 4854 ft 206 kts 24°
2026-05-03 20:44 38.83162 -9.10008 6097 ft 217 kts 25°
2026-05-03 20:44 38.84515 -9.09068 7375 ft 224 kts 25°
2026-05-03 20:45 38.85884 -9.08054 8623 ft 233 kts 33°
2026-05-03 20:45 38.87000 -9.06502 9845 ft 241 kts 56°
2026-05-03 20:45 38.87562 -9.04462 10860 ft 248 kts 90°
2026-05-03 20:45 38.87058 -9.02395 11887 ft 245 kts 131°
2026-05-03 20:46 38.85731 -9.01194 12877 ft 236 kts 168°
2026-05-03 20:46 38.84125 -9.00853 13858 ft 236 kts 179°
2026-05-03 20:46 38.82484 -9.00528 14704 ft 241 kts 175°
2026-05-03 20:46 38.80834 -9.00033 15538 ft 245 kts 172°
2026-05-03 20:47 38.79174 -8.99482 16288 ft 248 kts 173°
2026-05-03 20:47 38.77470 -8.98948 17361 ft 261 kts 173°
2026-05-03 20:47 38.75605 -8.98387 18261 ft 289 kts 173°
2026-05-03 20:47 38.73553 -8.97755 19062 ft 317 kts 173°
2026-05-03 20:48 38.71312 -8.97055 19830 ft 345 kts 172°
2026-05-03 20:48 38.68926 -8.96302 21010 ft 354 kts 172°
2026-05-03 20:48 38.66517 -8.95522 22437 ft 361 kts 173°
2026-05-03 20:48 38.64004 -8.94724 23061 ft 389 kts 173°
2026-05-03 20:49 38.61236 -8.93884 23067 ft 427 kts 173°
2026-05-03 20:49 38.58360 -8.93034 23070 ft 424 kts 173°
2026-05-03 20:49 38.55478 -8.92178 23068 ft 430 kts 173°
2026-05-03 20:49 38.52513 -8.91310 23062 ft 443 kts 173°
2026-05-03 20:50 38.49496 -8.90434 23067 ft 444 kts 173°
2026-05-03 20:50 38.46491 -8.89561 23067 ft 442 kts 173°
2026-05-03 20:50 38.43490 -8.88688 23066 ft 441 kts 173°
2026-05-03 20:50 38.40506 -8.87820 23065 ft 440 kts 173°
2026-05-03 20:51 38.37512 -8.86950 23067 ft 441 kts 173°
2026-05-03 20:51 38.34517 -8.86081 23068 ft 442 kts 173°
2026-05-03 20:51 38.31516 -8.85211 23045 ft 442 kts 173°
2026-05-03 20:51 38.28514 -8.84342 23059 ft 443 kts 173°
2026-05-03 20:52 38.25504 -8.83472 23058 ft 443 kts 173°
2026-05-03 20:52 38.22492 -8.82603 23058 ft 444 kts 173°
2026-05-03 20:52 38.19483 -8.81735 23059 ft 444 kts 173°
2026-05-03 20:52 38.16477 -8.80868 23059 ft 443 kts 173°
2026-05-03 20:53 38.13473 -8.79997 23059 ft 442 kts 170°
2026-05-03 20:53 38.10513 -8.78900 23063 ft 446 kts 162°
2026-05-03 20:53 38.07639 -8.77366 23066 ft 453 kts 156°
2026-05-03 20:53 38.05023 -8.75055 23186 ft 466 kts 138°
2026-05-03 20:54 38.03530 -8.73073 23146 ft 473 kts 132°
2026-05-03 20:54 37.98238 -8.66184 23069 ft 459 kts 146°
2026-05-03 20:54 37.95731 -8.63653 23069 ft 461 kts 147°
2026-05-03 20:55 37.93283 -8.61000 23060 ft 466 kts 142°
2026-05-03 20:55 37.90980 -8.58176 23059 ft 465 kts 141°
2026-05-03 20:55 37.88595 -8.55406 23060 ft 463 kts 143°
2026-05-03 20:55 37.86220 -8.52668 23065 ft 463 kts 143°
2026-05-03 20:56 37.83867 -8.49854 23059 ft 467 kts 142°
2026-05-03 20:56 37.81515 -8.47014 23062 ft 467 kts 142°
2026-05-03 20:56 37.79144 -8.44210 23056 ft 466 kts 143°
2026-05-03 20:56 37.76766 -8.41430 23056 ft 466 kts 143°
2026-05-03 20:57 37.75165 -8.39545 23067 ft 465 kts 142°
2026-05-03 20:57 37.72837 -8.36782 22990 ft 465 kts 142°
2026-05-03 20:57 37.70509 -8.34019 22408 ft 452 kts 143°
2026-05-03 20:57 37.68263 -8.31361 21830 ft 434 kts 143°
2026-05-03 20:58 37.66110 -8.28771 21248 ft 421 kts 141°
2026-05-03 20:58 37.64017 -8.26242 20709 ft 414 kts 141°
2026-05-03 20:58 37.61901 -8.23780 20170 ft 414 kts 142°
2026-05-03 20:58 37.59758 -8.21357 19633 ft 414 kts 144°
2026-05-03 20:59 37.57622 -8.18924 19083 ft 412 kts 143°
2026-05-03 20:59 37.55549 -8.16460 18541 ft 408 kts 141°
2026-05-03 20:59 37.53506 -8.14007 17971 ft 402 kts 141°
2026-05-03 20:59 37.51470 -8.11628 17439 ft 396 kts 142°
2026-05-03 21:00 37.49448 -8.09295 16919 ft 393 kts 142°
2026-05-03 21:00 37.48119 -8.07746 16578 ft 392 kts 141°
2026-05-03 21:00 37.45481 -8.04647 15893 ft 391 kts 141°
2026-05-03 21:00 37.43490 -8.02318 15367 ft 388 kts 141°
2026-05-03 21:01 37.41513 -8.00019 14864 ft 386 kts 141°
2026-05-03 21:01 37.39544 -7.97726 14359 ft 384 kts 141°
2026-05-03 21:01 37.37591 -7.95450 13848 ft 381 kts 140°
2026-05-03 21:01 37.35659 -7.93197 13316 ft 377 kts 140°
2026-05-03 21:02 37.33742 -7.90968 12819 ft 373 kts 140°
2026-05-03 21:02 37.31843 -7.88764 12324 ft 370 kts 140°
2026-05-03 21:02 37.29968 -7.86586 11838 ft 363 kts 140°
2026-05-03 21:02 37.28158 -7.84480 11341 ft 345 kts 140°
2026-05-03 21:03 37.26453 -7.82499 10934 ft 325 kts 140°
2026-05-03 21:03 37.24831 -7.80622 10508 ft 310 kts 140°
2026-05-03 21:03 37.23278 -7.78825 10106 ft 298 kts 140°
2026-05-03 21:03 37.21790 -7.77106 9692 ft 291 kts 140°
2026-05-03 21:04 37.20307 -7.75389 9326 ft 289 kts 140°
2026-05-03 21:04 37.18824 -7.73676 8949 ft 291 kts 140°
2026-05-03 21:04 37.17327 -7.71946 8554 ft 293 kts 140°
2026-05-03 21:04 37.15828 -7.70212 8166 ft 292 kts 140°
2026-05-03 21:05 37.14339 -7.68492 7785 ft 289 kts 140°
2026-05-03 21:05 37.12866 -7.66794 7424 ft 286 kts 140°
2026-05-03 21:05 37.11390 -7.65141 7058 ft 283 kts 144°
2026-05-03 21:05 37.09700 -7.63936 6690 ft 278 kts 160°
2026-05-03 21:06 37.07853 -7.63301 6319 ft 274 kts 174°
2026-05-03 21:06 37.05968 -7.63249 5950 ft 269 kts 189°
2026-05-03 21:06 37.04166 -7.63753 5604 ft 262 kts 202°
2026-05-03 21:06 37.02532 -7.64637 5285 ft 250 kts 207°
2026-05-03 21:07 37.01011 -7.65618 4964 ft 241 kts 216°
2026-05-03 21:07 36.99781 -7.66986 4645 ft 233 kts 231°
2026-05-03 21:07 36.98893 -7.68585 4338 ft 220 kts 243°
2026-05-03 21:07 36.98344 -7.70299 4059 ft 204 kts 258°
2026-05-03 21:08 36.98114 -7.71971 3896 ft 193 kts 268°
2026-05-03 21:08 36.98198 -7.73617 3658 ft 181 kts 279°
2026-05-03 21:08 36.98382 -7.75096 3408 ft 164 kts 280°
2026-05-03 21:08 36.98561 -7.76373 3203 ft 136 kts 282°
2026-05-03 21:09 36.98722 -7.77491 2976 ft 121 kts 281°
2026-05-03 21:09 36.98871 -7.78535 2860 ft 124 kts 281°
2026-05-03 21:09 36.99021 -7.79595 2706 ft 123 kts 282°
2026-05-03 21:09 36.99170 -7.80643 2533 ft 121 kts 283°
2026-05-03 21:10 36.99317 -7.81680 2372 ft 121 kts 284°
2026-05-03 21:10 36.99463 -7.82701 2213 ft 120 kts 283°
2026-05-03 21:10 36.99609 -7.83728 2051 ft 120 kts 283°
2026-05-03 21:10 36.99756 -7.84753 1890 ft 120 kts 285°
2026-05-03 21:11 36.99907 -7.85787 1731 ft 121 kts 284°
2026-05-03 21:11 37.00056 -7.86833 1565 ft 123 kts 283°
2026-05-03 21:11 37.00202 -7.87872 1394 ft 119 kts 283°
2026-05-03 21:11 37.00346 -7.88882 1230 ft 117 kts 283°
2026-05-03 21:12 37.00493 -7.89901 1072 ft 120 kts 282°
2026-05-03 21:12 37.00641 -7.90925 910 ft 120 kts 279°
2026-05-03 21:12 37.00776 -7.91962 761 ft 120 kts 278°
2026-05-03 21:12 37.00927 -7.93003 595 ft 123 kts 280°
2026-05-03 21:13 37.01087 -7.94039 428 ft 120 kts 278°
2026-05-03 21:13 37.01227 -7.95067 215 ft 120 kts 278°
2026-05-03 21:13 37.01371 -7.96087 38 ft 117 kts 279°
2026-05-03 21:13 37.01492 -7.96903 16 ft 69 kts 280°
2026-05-03 21:14 37.01555 -7.97358 13 ft 41 kts 280°
2026-05-03 21:14 37.01597 -7.97652 13 ft 30 kts 280°
2026-05-03 21:14 37.01631 -7.97893 15 ft 27 kts 281°
2026-05-03 21:14 37.01699 -7.98101 17 ft 26 kts 298°
2026-05-03 21:15 37.01803 -7.98234 15 ft 15 kts 360°
2026-05-03 21:15 37.01846 -7.98132 15 ft 18 kts 100°
2026-05-03 21:15 37.01822 -7.97954 15 ft 23 kts 100°
2026-05-03 21:15 37.01792 -7.97740 15 ft 27 kts 100°
2026-05-03 21:16 37.01758 -7.97510 14 ft 22 kts 99°
2026-05-03 21:16 37.01799 -7.97406 15 ft 12 kts 37°
2026-05-03 21:16 37.01849 -7.97322 15 ft 13 kts 99°
2026-05-03 21:16 37.01831 -7.97196 15 ft 11 kts 99°
2026-05-03 21:17 37.01810 -7.97104 15 ft 10 kts 145°
2026-05-03 21:17 37.01773 -7.97086 15 ft 7 kts 159°
2026-05-03 21:17 37.01760 -7.97080 15 ft 0 kts 158°